Theta_e
320 321 322 322 321 322 323 323 321 321 322 324 323 323 323 323 323 323 323 322 322 322 322 322 321 321 320 320 320 321 321 323 323 322 322 323 325 326 326 326 327 327 327 327 326 326 326 326 326 326 326 325 325 325 325 325 325 324 323 323 322 322 322 322 321 321 321 321 321
314 315 315 314 315 318 321 321 320 320 320 323 323 323 322 322 322 322 322 321 322 322 322 323 321 321 320 320 320 320 321 321 322 322 322 323 324 325 326 326 326 327 327 327 327 327 326 326 326 326 326 325 325 325 325 325 325 324 324 323 323 323 322 322 322 322 321 321 321
307 308 309 311 313 315 319 320 321 321 320 320 320 321 321 321 321 321 322 321 320 320 321 321 320 320 320 320 319 320 320 321 321 322 322 323 324 325 325 325 326 326 326 326 327 327 327 327 326 325 324 325 325 325 325 325 325 324 324 323 323 323 322 322 322 322 322 322 322
298 300 302 304 305 306 309 313 315 315 316 317 316 316 316 317 318 319 319 318 318 319 319 319 319 318 318 317 317 318 319 318 319 320 321 322 323 324 325 325 325 326 327 327 327 327 327 327 326 325 325 325 325 325 325 325 325 324 324 324 323 323 322 322 322 322 322 322 322
291 292 293 295 296 297 297 299 300 302 303 304 305 306 308 309 310 311 311 312 313 314 314 314 315 315 314 313 314 315 316 317 315 317 320 321 322 323 324 325 325 325 327 327 327 327 327 327 327 326 326 326 325 325 325 325 325 325 324 324 323 323 323 322 322 322 322 321 321
288 288 288 289 290 290 291 292 292 293 294 295 296 297 299 301 301 302 303 304 305 306 306 306 307 307 308 310 311 312 313 314 316 318 320 321 322 322 323 324 324 325 326 327 327 327 327 327 326 326 326 326 326 326 326 325 325 325 324 323 323 323 323 322 322 322 321 321 321
286 286 287 287 288 288 289 290 290 291 291 292 293 293 294 295 295 296 297 298 299 300 300 300 302 303 306 308 309 310 311 314 315 317 319 320 321 321 321 323 324 325 326 327 327 327 327 327 326 325 324 323 324 325 325 325 325 324 324 323 323 322 322 322 322 321 321 320 320
285 286 286 287 287 288 288 289 289 290 291 292 292 292 292 292 293 293 294 295 296 297 297 298 300 302 304 305 307 308 310 310 312 314 315 317 319 320 321 321 323 324 325 326 327 327 327 327 326 326 325 324 324 324 324 324 324 324 323 322 322 322 322 322 322 321 321 320 319
285 286 286 286 287 288 288 288 289 290 290 291 291 291 292 292 292 293 293 294 295 295 296 297 299 300 301 303 305 306 307 309 310 311 312 314 315 317 318 320 321 323 324 326 326 326 326 326 326 326 326 325 324 324 324 323 323 323 323 323 323 322 322 321 321 321 321 320 318
286 286 286 287 287 287 287 288 288 289 289 290 290 290 291 290 291 292 293 294 295 295 297 298 299 299 301 302 304 305 306 308 309 310 310 312 313 314 316 317 319 320 322 324 325 326 326 326 325 325 325 325 324 324 323 323 323 322 322 323 322 322 321 321 321 321 321 319 317
286 286 286 287 287 286 287 287 287 288 288 289 289 290 290 290 291 292 293 294 294 295 296 298 299 299 300 302 303 305 306 308 309 310 310 311 312 313 315 316 317 319 320 322 324 325 325 325 325 324 324 324 324 324 323 323 323 322 322 323 322 321 321 321 321 320 319 317 314
286 285 286 286 286 286 286 286 287 287 288 288 289 289 289 289 290 290 291 292 293 294 295 296 297 298 300 302 303 304 305 306 307 309 309 310 311 312 313 314 315 317 318 320 323 324 324 324 324 323 323 323 323 323 323 323 322 322 322 322 321 321 320 320 318 317 315 314 313
285 285 285 285 285 285 285 286 286 287 287 287 288 288 288 288 289 289 290 291 292 294 295 296 297 298 300 302 302 304 305 306 307 308 309 310 310 311 312 313 314 315 317 319 320 323 324 324 323 323 323 323 323 323 323 323 322 322 322 321 320 320 319 318 316 314 313 313 313
283 284 284 283 283 284 284 285 285 286 286 286 286 287 287 288 289 291 293 294 295 297 298 299 299 300 302 303 303 304 305 306 306 307 308 309 310 310 311 312 313 314 316 318 319 321 323 323 323 323 323 323 323 323 323 322 322 322 321 320 320 319 318 317 315 314 313 312 312
283 282 282 282 282 283 284 284 285 285 285 285 286 288 290 292 293 295 297 299 300 301 302 303 304 305 305 305 305 306 306 307 307 307 308 308 308 309 310 311 312 313 315 317 318 319 321 322 322 322 322 322 322 322 322 322 322 321 321 320 320 319 318 317 315 313 312 311 311
282 281 281 281 282 282 283 285 286 287 287 288 290 291 293 295 297 298 299 300 302 302 303 304 305 306 306 306 306 307 308 308 309 309 309 309 309 309 310 310 311 313 314 316 317 319 321 322 322 323 323 322 322 322 322 322 321 321 321 320 320 319 319 317 315 313 312 311 311
282 281 281 281 282 283 285 287 289 289 289 291 293 295 296 298 299 299 299 299 301 302 303 304 304 305 305 305 306 307 308 309 310 311 311 311 311 311 311 312 312 313 314 316 318 319 321 322 323 323 323 322 322 322 322 322 322 321 321 320 319 319 318 315 314 313 312 310 309
282 281 281 282 283 284 286 289 290 290 291 293 295 297 298 299 299 299 299 299 300 301 302 302 303 303 305 305 305 306 307 309 310 311 312 312 313 313 313 314 315 315 316 318 319 320 321 322 322 322 322 322 322 322 322 322 322 321 320 319 318 317 316 314 312 312 311 309 309
282 281 281 283 284 285 287 290 292 293 293 295 296 297 297 297 297 298 299 299 299 299 300 301 302 303 304 304 305 305 305 307 309 310 311 312 313 314 315 315 316 317 318 319 320 321 321 321 321 321 321 321 321 321 321 321 320 319 317 315 314 313 311 311 310 309 309 309 308
282 281 282 284 285 286 289 293 294 294 295 295 295 296 296 296 296 297 297 298 297 297 298 299 301 302 302 302 303 304 305 306 308 309 310 311 312 314 314 315 316 317 318 318 318 318 318 318 317 317 316 316 316 316 316 315 314 312 311 309 309 308 307 307 307 307 307 307 307
282 282 284 286 287 289 291 294 294 294 295 295 295 295 295 295 295 295 296 296 296 296 297 299 300 300 300 300 301 302 304 304 305 306 307 307 308 309 310 311 312 312 313 313 313 313 313 313 312 311 311 311 310 310 309 309 307 307 306 305 305 304 303 303 303 303 304 304 304
283 284 286 288 291 292 293 294 294 294 294 294 294 294 293 293 294 294 294 295 295 296 296 297 298 299 299 300 300 301 302 303 303 303 303 304 305 305 305 306 307 307 307 307 307 307 307 307 307 308 308 308 308 307 306 306 306 305 305 304 303 301 300 300 300 300 300 301 301
286 287 289 290 291 292 292 293 293 293 293 293 292 292 292 292 292 292 293 294 294 294 295 296 296 297 297 298 298 299 300 301 302 301 301 302 302 303 303 303 304 303 303 302 302 303 304 304 304 304 305 306 306 305 304 304 304 304 304 302 300 299 298 297 297 297 298 298 298
289 290 290 290 290 291 291 292 292 292 291 291 290 290 290 290 290 290 291 292 293 293 293 294 295 295 295 296 296 297 297 299 299 299 299 299 300 300 300 300 300 300 299 299 298 299 300 300 301 302 302 302 302 302 301 301 302 303 302 301 299 298 296 295 295 295 295 295 295
290 290 290 289 289 290 290 290 291 290 289 289 289 289 289 288 288 289 290 291 291 292 292 292 293 293 294 295 295 295 296 296 296 297 297 297 297 297 298 298 297 297 296 295 294 295 296 296 299 300 300 300 300 299 299 299 299 299 299 299 298 296 295 294 293 293 293 292 292
290 289 289 288 288 288 288 288 288 288 288 288 288 288 287 286 286 287 288 289 289 290 290 291 292 292 292 293 294 295 295 295 295 295 295 295 295 295 295 295 295 295 294 290 293 295 297 298 297 296 297 300 299 298 297 296 296 296 296 296 296 296 295 293 292 291 290 290 290
289 288 288 287 287 287 287 287 287 287 287 287 287 287 286 285 286 286 286 287 287 288 289 290 291 291 291 293 293 293 293 294 294 294 294 294 293 293 293 293 293 293 292 290 294 296 298 298 297 296 296 297 297 296 295 294 294 294 295 295 295 295 294 292 291 290 289 289 288
288 287 287 287 287 287 286 287 287 287 286 286 286 286 286 285 285 286 286 286 286 287 288 289 290 291 291 293 292 292 292 293 293 293 293 292 292 292 292 293 293 292 292 294 296 297 297 297 297 296 294 292 294 294 293 293 293 293 293 293 293 293 293 292 290 289 289 288 288
287 287 287 287 287 286 286 286 286 286 286 286 285 285 285 285 285 286 286 286 287 288 288 289 290 290 291 292 291 291 291 292 292 292 292 292 291 291 291 292 292 293 294 296 296 296 297 297 296 296 295 294 293 292 292 292 292 292 292 292 292 292 291 290 290 289 288 288 287
287 286 286 286 286 286 286 285 286 285 285 285 285 285 285 285 285 286 286 286 287 288 289 289 290 290 290 290 290 291 291 291 291 291 291 291 291 291 291 291 292 292 294 296 296 296 296 296 296 296 295 294 291 291 291 291 291 292 291 291 291 291 290 289 289 288 288 288 287
286 286 286 286 286 286 286 285 285 285 285 285 285 285 285 286 286 286 287 287 288 288 288 289 289 288 289 289 290 290 290 290 290 290 290 290 290 290 291 291 291 292 293 295 295 295 295 295 295 295 294 293 290 290 290 290 290 290 290 290 289 289 289 289 289 288 288 287 287
286 286 286 286 286 286 286 285 285 285 285 285 285 285 286 286 287 287 287 288 288 288 289 289 288 288 289 289 289 289 289 288 288 289 289 289 289 290 290 290 291 291 293 295 295 295 295 294 294 294 293 292 289 288 288 289 289 288 288 288 288 288 288 288 288 287 287 287 286
286 286 286 286 286 286 285 285 285 285 285 285 285 285 286 286 287 287 287 287 287 288 288 288 288 288 288 288 288 288 288 287 287 287 288 288 289 290 290 290 291 292 294 295 294 294 294 293 293 293 292 290 288 288 288 288 288 287 287 286 286 286 286 286 287 287 286 286 286
286 286 286 286 286 286 285 285 285 285 286 285 285 286 286 286 286 286 286 287 287 287 287 287 287 287 287 287 287 287 287 286 287 287 287 288 289 289 289 289 290 292 294 294 294 294 293 293 292 291 290 287 287 287 287 286 286 286 285 285 285 285 285 285 286 286 286 285 286
286 286 286 286 286 286 285 285 285 285 286 285 285 285 286 286 286 286 286 286 287 287 287 287 287 287 287 287 286 286 286 285 286 286 287 287 288 289 289 289 290 292 294 294 293 293 293 292 292 291 289 287 286 286 286 285 285 284 284 284 284 284 284 284 285 285 285 285 285
286 286 286 286 286 285 285 285 285 285 285 285 285 285 285 285 285 285 286 286 286 286 286 286 286 286 286 285 285 285 285 285 285 285 286 287 288 288 289 289 290 291 293 293 293 292 292 292 291 290 289 287 286 285 285 284 284 283 283 282 282 282 282 283 283 283 283 283 284
286 286 286 286 286 285 285 285 285 285 285 285 285 285 285 285 285 285 285 286 286 286 286 286 285 285 285 285 285 285 285 285 285 285 285 286 287 288 288 288 289 290 291 292 292 292 291 291 291 290 288 286 285 285 285 284 283 282 282 281 281 281 281 281 282 282 282 282 282
286 286 286 286 286 285 285 285 285 285 285 285 285 284 284 284 285 285 285 285 286 285 285 285 285 285 285 285 285 285 285 285 285 285 285 285 286 287 288 288 288 289 290 291 291 291 291 290 290 289 287 285 285 284 284 283 283 282 281 281 281 280 281 281 281 281 281 281 281
286 286 286 286 286 285 285 285 285 285 285 285 285 284 284 284 284 284 285 285 285 285 285 285 284 284 284 284 284 284 285 285 285 285 285 285 286 286 287 288 288 288 289 290 290 290 290 290 289 288 286 284 284 284 283 283 282 281 281 280 280 280 280 280 280 280 280 280 280
286 286 286 286 285 285 285 285 285 285 285 285 284 284 283 283 284 285 285 285 285 285 285 284 284 284 284 284 284 284 284 284 284 285 285 285 285 286 286 287 288 288 288 289 290 290 290 289 288 287 285 283 282 282 282 281 280 280 279 279 279 279 278 278 279 279 279 279 280
286 286 286 286 285 285 285 285 285 285 285 284 284 283 283 283 283 285 285 285 285 285 285 284 284 284 284 284 284 284 284 283 284 284 284 285 285 286 287 287 288 288 288 289 289 289 289 289 288 287 285 282 280 280 280 279 279 278 278 277 278 278 278 278 279 279 279 280 280
Wind_Speed
6 6 6 6 5 5 5 6 5 5 5 6 6 6 5 5 6 5 5 5 5 5 4 4 4 4 5 6 8 9 9 10 10 11 11 11 12 12 12 12 12 12 12 12 11 11 10 11 10 9 8 7 8 8 8 8 9 9 9 9 9 10 11 12 12 12 13 14 11
6 6 5 5 5 5 5 5 5 5 5 5 5 5 5 5 5 5 5 5 5 5 4 4 4 4 5 6 7 8 9 9 10 11 11 12 12 12 12 12 12 12 12 12 12 10 9 10 10 9 8 7 8 8 8 8 9 9 10 11 10 9 9 10 11 12 13 13 12
3 3 3 3 4 4 5 5 5 5 5 5 4 4 4 4 5 5 5 5 4 4 4 4 4 4 5 5 6 7 7 8 9 10 10 11 11 12 12 11 11 12 12 12 11 10 10 10 9 8 7 7 8 8 8 8 9 9 10 11 9 8 8 8 10 10 10 10 11
2 2 2 3 4 4 4 4 5 6 5 4 4 4 3 3 4 4 4 4 4 4 4 4 3 3 3 3 4 5 6 7 8 9 9 10 11 11 12 11 12 12 12 12 12 12 11 11 9 8 7 8 9 9 8 7 9 9 9 9 8 8 8 8 8 8 8 8 9
1 1 1 2 3 3 3 3 4 4 4 4 4 4 4 4 4 4 4 4 4 4 3 3 3 3 3 2 2 3 4 5 6 7 8 9 10 10 11 12 12 12 12 12 12 12 12 12 9 8 8 9 8 8 8 9 10 9 8 7 7 7 8 8 8 7 7 7 7
1 1 1 1 1 2 2 2 2 3 3 2 3 4 4 4 3 4 4 4 4 4 4 3 3 3 3 3 3 3 3 4 4 5 7 8 8 9 10 11 12 11 11 11 12 12 12 12 8 7 7 8 8 8 9 10 10 10 9 7 7 7 7 8 7 7 7 7 7
2 2 2 2 2 1 2 1 1 1 1 1 2 4 4 4 3 4 4 4 4 3 3 3 3 4 4 4 4 4 4 4 4 5 6 7 7 8 9 10 11 11 11 11 11 11 11 11 8 7 7 6 6 7 9 9 9 9 9 8 7 6 7 8 7 6 6 8 9
2 2 2 2 2 2 2 2 2 1 1 1 2 3 3 3 4 4 4 4 4 3 3 3 4 4 5 5 6 6 5 5 5 5 6 6 7 8 9 9 10 11 11 11 11 11 10 9 8 7 7 6 6 6 7 9 9 9 9 9 7 6 6 7 6 6 6 8 10
2 2 2 2 3 3 3 2 2 2 2 2 3 3 3 3 4 4 4 4 4 3 3 3 4 4 5 6 6 6 6 6 6 6 6 6 7 8 8 8 9 10 10 10 11 11 11 9 8 7 7 6 6 6 7 9 10 10 10 9 8 7 7 6 7 7 8 9 10
2 2 2 2 2 2 2 2 2 2 2 3 3 3 3 3 3 4 3 3 3 3 3 3 4 4 5 6 6 6 6 6 7 7 7 7 8 8 8 8 9 9 10 10 10 10 11 9 9 8 8 8 8 8 8 9 10 11 10 9 8 8 8 7 7 8 8 8 9
3 2 2 2 2 1 1 1 1 2 2 3 3 3 3 3 3 3 3 2 2 3 3 3 4 4 5 6 6 6 6 6 6 7 7 8 8 8 9 9 9 10 10 10 9 9 9 9 9 10 10 9 9 9 10 10 11 12 12 11 10 9 9 9 8 7 6 6 6
2 2 1 1 1 1 1 1 2 2 2 3 3 3 3 3 3 2 2 1 2 3 3 3 4 4 5 5 5 6 6 6 7 7 8 8 8 9 9 9 10 10 10 10 9 9 8 9 10 11 12 11 9 9 9 10 11 12 13 12 10 10 9 9 7 5 4 3 4
2 1 1 1 0 0 1 2 2 2 2 3 3 3 2 2 2 2 2 2 2 3 3 3 3 4 5 5 5 6 6 6 7 7 7 8 8 8 9 9 9 10 10 10 9 9 9 10 11 12 12 12 10 10 10 11 12 13 13 12 10 10 9 9 7 5 4 4 5
2 2 1 1 1 1 1 1 1 1 2 2 2 2 2 2 2 2 2 2 3 3 3 3 3 4 5 5 6 6 6 7 7 7 8 8 8 8 8 8 9 9 9 9 9 10 10 11 11 12 12 13 12 12 11 11 12 12 12 11 11 10 10 9 7 6 5 5 6
2 2 1 1 1 1 1 0 0 1 1 2 2 2 2 2 2 2 2 3 3 3 3 3 3 4 4 5 6 6 7 7 7 8 8 8 8 8 8 8 8 8 8 8 9 10 11 11 12 12 12 13 13 13 12 12 11 11 11 11 11 11 10 9 7 6 5 6 6
2 1 1 1 2 2 1 1 0 0 1 1 2 2 2 2 2 2 3 3 3 3 3 3 3 3 3 4 5 6 6 6 7 7 8 8 8 8 8 8 8 8 8 8 9 9 10 11 11 12 13 13 13 12 12 12 11 11 11 11 11 11 10 9 7 6 6 6 6
2 1 1 2 2 2 2 2 2 2 1 1 1 2 2 2 2 2 2 3 3 3 3 3 3 3 3 4 4 4 5 5 6 6 7 8 8 8 8 8 8 8 8 9 9 10 10 11 11 12 12 12 12 12 12 12 12 12 12 12 11 11 10 8 7 6 6 6 7
2 2 2 2 2 3 3 3 3 3 2 2 1 1 1 1 2 2 2 2 2 3 3 4 3 3 4 4 4 4 3 4 5 6 6 7 7 8 8 8 8 8 9 9 10 10 11 11 11 10 10 9 10 11 11 12 12 12 11 11 10 8 7 6 6 5 6 6 6
2 2 2 3 3 4 4 4 4 3 3 2 1 1 1 1 1 2 2 2 3 3 3 4 4 4 4 5 5 4 3 4 4 5 6 6 6 7 7 8 8 9 9 9 9 9 9 9 8 6 6 6 6 7 8 9 9 9 8 7 6 5 4 4 4 4 4 5 6
3 3 3 3 4 4 4 4 4 3 3 2 1 1 1 1 1 2 2 3 3 3 3 4 4 4 4 5 5 5 4 3 4 4 4 4 4 4 5 6 6 6 6 6 6 5 5 4 3 2 2 3 3 4 5 5 5 4 3 2 2 2 3 3 3 4 4 4 5
4 4 4 4 4 4 4 4 3 3 2 2 1 1 1 1 1 2 2 3 3 3 3 3 4 4 4 5 5 5 5 3 4 4 3 2 1 1 2 2 1 1 1 1 1 1 0 0 0 0 0 1 1 2 2 2 1 1 1 2 2 3 3 3 3 3 3 3 3
4 5 5 5 5 4 4 3 3 2 2 2 1 1 1 1 2 2 2 3 2 2 2 3 3 4 4 4 4 5 4 4 4 4 3 2 1 1 1 1 2 3 3 3 3 2 1 1 1 1 1 1 2 2 2 2 3 3 3 3 3 3 3 3 3 3 2 2 2
5 5 5 5 4 4 3 2 2 2 2 1 1 1 1 2 2 2 2 2 2 2 2 2 3 3 4 4 4 4 4 3 4 4 4 3 3 3 3 3 3 4 4 3 3 2 2 1 1 1 1 1 1 2 2 2 2 3 3 3 4 5 5 5 5 5 5 5 4
6 6 5 4 4 3 3 3 2 2 2 1 1 1 1 2 2 2 2 2 1 1 1 2 2 3 3 3 3 3 3 3 3 4 4 4 4 4 5 4 4 4 3 2 2 1 2 2 1 2 2 2 2 2 2 2 2 2 3 4 5 5 5 5 6 6 6 6 5
6 6 5 4 3 3 3 3 3 2 2 1 1 1 1 1 2 2 2 1 1 1 1 2 2 3 3 3 3 3 3 3 3 3 4 4 5 5 5 4 4 3 3 2 1 1 3 3 3 2 3 3 3 3 3 3 3 4 4 4 5 5 5 5 6 6 6 6 6
6 6 5 4 3 3 3 3 2 2 1 1 1 1 1 1 1 2 2 1 1 1 2 2 2 2 2 2 2 3 3 2 2 3 3 3 4 4 4 3 3 3 3 3 3 1 2 3 4 3 3 3 3 3 3 3 4 4 4 5 5 5 5 5 5 6 6 6 7
6 6 5 4 4 3 3 3 2 1 1 1 1 1 1 1 1 1 1 1 1 2 2 2 2 2 2 2 2 2 3 2 2 2 2 3 3 4 4 3 3 3 3 3 4 4 4 4 4 4 4 3 3 4 3 3 4 4 4 4 4 5 5 5 5 6 6 6 7
6 6 6 5 4 4 3 3 2 1 1 1 1 1 1 0 1 1 1 1 1 1 1 2 2 2 1 1 2 2 2 2 2 2 2 2 3 3 3 3 3 3 3 4 5 6 6 6 6 5 5 4 4 4 4 4 4 4 4 4 5 5 6 6 5 5 6 6 6
7 7 6 6 5 5 4 3 3 2 2 2 1 1 0 0 0 1 1 1 0 1 1 1 1 1 1 2 2 2 2 2 2 2 2 2 3 3 3 3 3 3 3 5 6 6 6 6 6 6 6 6 4 4 4 4 4 4 4 4 4 5 5 5 5 5 5 6 5
7 7 7 7 6 5 5 4 3 3 2 2 1 1 1 0 1 1 1 0 0 0 0 0 1 1 2 2 2 2 2 2 2 2 2 3 3 3 3 3 2 3 4 5 6 6 6 6 7 7 8 8 6 5 4 4 4 3 4 4 4 5 6 6 6 6 6 5 5
7 7 7 7 6 6 5 4 3 3 2 2 2 2 1 1 1 1 1 1 0 0 0 0 1 1 2 2 2 2 2 2 2 2 3 3 3 3 3 3 3 3 4 6 7 7 8 8 8 9 9 9 7 5 4 4 4 4 4 4 5 5 6 6 6 6 6 6 6
8 7 7 7 7 6 5 4 4 3 3 2 2 2 2 2 2 1 1 1 0 0 1 1 1 2 2 2 3 3 3 3 3 3 3 3 3 3 4 4 3 4 5 7 8 9 10 10 11 11 11 11 7 6 5 5 5 4 4 5 5 5 5 5 5 6 6 6 6
8 7 7 7 7 6 5 5 4 4 3 3 3 3 3 2 1 1 0 0 1 1 1 2 2 2 2 3 3 3 3 3 3 3 3 3 4 4 4 4 3 4 6 9 10 11 11 11 12 12 12 10 7 6 5 5 5 5 5 5 5 5 5 5 5 5 5 5 4
8 8 7 7 7 6 6 5 5 4 4 4 4 4 3 3 2 1 1 0 1 1 2 2 2 2 2 2 3 3 3 3 3 3 3 3 4 4 4 3 3 5 7 10 10 11 11 11 12 11 11 8 6 5 6 6 5 5 5 6 5 5 5 5 4 4 4 4 4
9 8 8 7 7 7 6 6 6 5 5 5 4 4 3 3 2 2 1 1 1 2 2 2 3 3 3 3 3 3 3 2 2 3 3 3 4 4 4 3 3 5 8 10 10 10 10 10 10 10 9 7 5 5 6 7 6 6 6 6 6 5 5 5 4 4 4 4 4
9 9 9 8 7 7 7 7 6 6 5 5 5 4 3 3 2 1 1 1 2 2 2 3 3 3 3 3 3 3 3 2 3 3 3 3 4 4 4 3 3 6 8 9 9 9 9 9 9 9 8 6 5 5 5 6 6 6 6 6 6 5 5 5 4 4 4 4 4
9 9 9 9 8 7 7 7 7 6 6 6 5 4 3 3 2 1 1 1 2 3 3 3 3 3 3 3 3 3 2 2 3 3 3 3 3 4 4 4 4 5 7 8 9 8 8 8 8 8 7 5 4 5 5 5 5 5 5 6 5 5 5 4 4 4 5 5 5
9 9 9 9 8 8 7 7 7 7 7 6 4 3 3 3 2 2 1 2 2 3 3 3 3 3 3 3 3 3 3 3 3 4 3 3 3 3 4 5 4 4 5 7 8 8 8 8 8 7 6 4 4 4 4 4 4 4 5 5 5 4 4 4 4 4 5 6 6
9 9 9 9 9 8 8 8 7 7 6 5 4 4 3 3 2 2 2 2 2 3 4 4 3 3 3 4 4 4 4 4 4 4 3 3 3 3 4 5 5 4 5 7 8 8 8 8 8 7 6 4 4 4 4 4 5 5 5 4 4 4 4 4 4 4 5 6 7
9 9 9 9 9 8 8 8 7 7 6 5 5 4 4 3 3 3 3 3 3 3 4 4 4 4 4 4 5 5 5 4 4 4 3 3 3 4 5 5 5 5 5 7 8 9 8 8 8 7 6 4 4 4 4 4 5 5 4 4 3 3 3 4 4 4 4 5 6
8 8 8 8 8 8 8 8 7 6 5 5 5 4 4 3 3 3 3 4 4 4 4 4 4 4 4 4 4 5 5 5 4 4 4 4 4 4 5 5 6 5 5 7 8 9 9 9 8 8 6 5 4 4 4 4 5 5 4 3 3 3 3 3 4 4 4 4 4
Wind_Direction
235 235 235 235 235 236 237 239 238 239 241 243 246 247 248 248 250 251 250 247 247 247 245 238 231 226 218 209 206 206 209 210 211 212 213 215 218 218 218 218 218 218 217 217 217 218 219 220 222 226 228 229 231 232 233 234 233 233 232 231 232 232 232 232 235 235 235 236 237
238 239 241 242 242 242 243 244 242 240 240 242 245 247 249 249 251 253 253 250 250 252 254 254 245 237 226 216 209 209 210 212 212 213 214 216 219 219 219 220 219 218 218 217 216 217 218 219 222 226 229 230 231 232 233 231 231 233 234 232 232 232 231 232 234 235 237 238 238
251 258 262 261 260 258 255 252 251 250 249 249 251 254 255 255 256 257 259 258 259 259 260 261 258 251 242 231 220 215 214 215 214 215 216 218 219 220 220 221 221 220 219 218 216 217 218 219 222 225 229 231 232 233 233 232 230 232 234 233 233 232 232 234 234 235 236 238 238
285 283 278 272 270 267 265 266 271 274 276 279 284 285 281 278 277 276 277 280 279 276 274 276 280 278 271 256 240 230 225 221 219 218 219 219 219 220 220 221 222 221 221 219 218 218 219 219 222 225 228 231 234 235 236 234 231 232 233 232 232 233 234 235 234 233 233 235 236
277 266 257 256 260 263 267 274 280 286 291 301 302 298 293 292 294 296 297 297 295 298 305 316 316 320 324 326 289 262 248 237 229 226 225 224 222 221 221 220 221 222 222 221 220 219 219 219 222 225 228 230 232 234 236 237 237 236 234 232 230 232 233 236 234 231 230 231 232
223 222 215 217 231 248 259 262 262 269 280 295 288 283 281 284 290 291 289 285 290 299 310 318 315 315 316 316 301 283 267 253 243 238 235 234 230 227 225 224 223 223 223 222 221 221 221 220 223 226 228 230 233 234 235 235 238 238 236 232 228 229 233 236 235 232 228 227 231
194 198 204 208 209 221 237 244 245 258 276 286 273 270 271 275 276 272 270 272 279 285 288 288 284 284 283 284 281 275 268 261 252 245 240 239 236 232 228 227 226 226 225 224 223 223 222 221 224 227 227 227 231 232 232 231 234 237 237 234 229 228 230 234 234 230 228 227 230
188 199 204 205 203 210 218 224 223 236 257 261 255 257 261 265 263 264 267 273 271 268 266 266 264 264 265 266 265 264 262 260 256 250 244 241 239 235 231 229 228 227 227 225 224 223 222 222 225 228 228 227 229 230 229 228 231 235 238 238 235 231 229 231 232 230 228 227 230
211 215 213 210 210 210 210 210 205 212 228 244 244 246 250 255 258 263 267 269 266 265 264 263 260 258 257 255 256 256 255 253 252 250 246 242 239 237 234 231 229 228 227 225 224 223 222 222 225 227 228 228 230 230 228 225 229 233 237 241 241 236 232 231 233 232 230 229 231
225 229 227 227 228 220 211 209 201 203 216 235 241 242 243 247 252 256 261 265 276 280 277 270 267 264 260 255 254 252 250 248 247 246 244 241 238 235 233 231 229 228 227 224 223 222 222 224 226 228 229 231 233 233 232 228 231 235 238 243 244 242 239 237 234 232 231 233 233
224 229 233 238 245 241 234 237 225 217 219 231 238 240 241 242 246 250 259 277 289 284 278 274 274 271 267 263 260 256 252 249 247 245 243 241 238 235 232 230 228 227 225 223 221 221 222 224 227 229 231 232 234 236 237 235 236 239 243 246 246 246 245 243 239 235 234 235 229
221 228 233 241 258 270 268 257 252 242 236 237 240 240 238 236 235 239 249 267 267 268 269 272 272 272 272 272 268 264 259 254 251 248 246 244 241 237 234 232 229 227 225 223 220 219 221 224 227 229 231 233 234 236 238 238 240 243 245 248 247 248 249 247 241 233 222 213 213
205 210 217 226 229 243 253 259 262 259 254 250 250 248 246 240 232 225 223 232 243 252 258 261 259 261 264 267 266 265 263 259 255 253 250 248 245 242 239 236 233 230 227 224 220 220 221 224 226 229 231 233 234 235 237 238 241 244 246 247 246 247 247 246 237 224 208 204 214
181 183 188 179 160 174 213 253 267 274 275 274 275 276 276 271 254 235 224 230 239 246 250 251 247 246 247 251 256 258 258 258 257 256 254 253 250 247 244 243 238 234 231 228 224 222 222 224 226 228 231 233 235 236 237 238 241 243 244 243 242 243 243 242 234 223 214 216 223
168 174 169 150 137 134 143 202 270 294 299 296 294 291 288 286 268 250 242 246 249 249 248 250 251 248 246 247 251 253 254 255 254 254 254 255 253 251 248 247 244 240 236 233 228 225 224 225 227 228 231 233 235 237 238 239 240 241 240 239 238 239 240 239 233 225 220 221 225
165 162 144 125 118 116 121 141 179 238 270 281 280 277 274 274 267 259 256 262 265 264 263 264 270 272 270 263 258 256 255 253 251 251 251 251 251 250 248 248 246 243 239 236 233 230 228 227 228 229 231 233 235 237 239 239 239 239 238 236 236 236 236 235 229 223 218 218 220
161 147 128 120 122 127 137 154 174 191 206 229 251 258 264 273 280 277 274 275 284 288 288 283 288 295 296 289 276 267 260 255 251 249 247 247 247 246 245 244 243 242 239 236 234 232 231 230 231 231 231 233 235 237 239 239 239 238 236 234 232 232 231 228 221 216 212 211 213
164 153 143 141 144 151 160 170 181 187 192 199 222 249 270 288 298 299 296 293 298 299 297 298 305 307 305 298 291 280 266 257 253 250 248 246 245 244 244 244 243 240 238 236 234 233 232 233 233 234 235 236 238 240 241 241 241 238 236 232 229 226 224 220 213 208 204 201 204
170 169 170 169 167 171 176 181 183 185 186 185 193 231 276 291 299 305 309 310 303 298 297 305 313 312 307 302 299 291 277 263 258 254 251 248 247 246 246 246 244 242 239 236 234 233 233 236 238 241 245 250 253 254 254 251 248 243 237 230 223 216 207 201 198 196 194 194 199
173 179 184 182 179 181 184 185 183 182 181 177 177 215 264 279 291 301 305 302 296 294 297 306 311 309 306 305 305 304 299 288 277 270 263 257 254 253 252 251 248 245 241 238 235 232 232 236 250 265 280 283 281 279 276 270 261 251 236 211 185 168 161 163 171 179 186 191 199
176 184 189 189 186 187 189 187 181 177 173 166 174 213 249 269 279 286 287 287 287 291 297 303 303 302 301 302 306 310 312 308 304 299 296 288 276 267 266 261 259 268 289 297 279 248 211 178 148 323 298 283 279 276 273 264 241 183 142 131 130 129 131 134 146 158 170 182 195
178 182 187 192 191 191 191 186 176 168 162 164 184 214 243 263 272 276 276 278 281 288 295 298 297 295 296 298 304 310 312 312 314 316 318 325 337 340 349 40 66 62 53 38 31 30 39 70 120 155 169 182 196 201 198 188 174 161 148 135 117 100 85 77 78 81 84 84 77
175 178 183 192 193 191 186 176 165 158 158 169 192 221 244 261 271 274 273 270 275 286 295 295 294 294 296 297 304 310 315 319 324 327 332 342 356 5 14 29 48 54 53 43 37 33 35 44 64 99 129 141 156 165 172 170 164 154 140 119 93 76 64 56 53 53 55 56 56
173 174 178 185 186 183 177 167 159 157 164 186 206 228 250 264 274 276 273 267 275 291 300 295 294 297 300 304 309 316 324 330 334 338 345 354 7 15 20 25 31 34 35 38 51 71 83 83 71 67 69 76 83 83 78 71 82 96 102 98 87 75 63 54 50 49 49 49 49
171 170 171 175 178 177 172 162 159 164 178 200 216 242 261 271 279 282 284 285 301 306 299 292 296 300 307 310 317 328 340 349 351 353 357 5 14 20 24 27 21 12 358 341 337 117 122 117 111 101 90 84 81 74 66 60 64 76 89 96 94 86 75 62 55 52 50 49 48
167 165 165 170 173 170 163 153 152 158 169 190 232 261 269 275 285 291 297 304 306 299 292 291 298 305 309 312 327 343 357 4 9 14 18 20 20 22 24 25 15 4 348 332 330 21 100 107 111 113 111 106 97 86 77 68 68 77 86 93 96 95 89 78 66 59 55 52 51
165 164 165 167 165 157 147 134 132 140 163 193 230 250 261 279 293 300 297 293 294 295 298 302 307 308 310 322 352 4 9 11 19 29 38 44 37 31 26 21 10 0 350 347 7 34 55 66 75 84 93 100 99 95 90 82 74 74 78 81 85 88 90 88 81 73 65 59 56
170 167 165 164 158 149 137 126 134 157 189 205 214 225 249 305 308 283 265 263 290 313 325 328 323 323 335 9 22 22 21 21 26 35 47 55 55 47 36 23 14 8 11 25 41 49 54 59 64 71 79 89 93 94 94 91 84 79 78 79 82 86 90 92 91 86 80 73 68
173 168 165 163 156 148 141 140 156 178 196 202 196 179 106 31 297 263 252 243 319 18 7 348 341 358 28 41 36 33 30 28 33 44 58 64 62 56 47 35 26 30 45 60 64 65 66 70 77 83 89 94 96 96 95 95 93 90 88 88 92 96 99 102 102 100 97 94 90
175 171 167 161 154 151 151 154 167 180 189 186 158 128 111 147 235 247 248 229 137 90 43 7 25 51 60 56 48 43 40 35 36 49 63 70 67 60 52 45 42 50 62 73 76 76 75 77 82 86 87 87 87 87 88 89 90 92 94 95 100 104 108 111 112 113 114 115 111
176 172 167 158 155 154 155 156 163 169 169 153 138 140 155 184 205 221 229 228 220 240 52 70 82 82 78 64 56 50 46 38 36 42 52 63 64 60 53 47 45 51 60 70 76 77 76 75 77 78 78 77 76 77 80 83 86 90 95 99 104 109 113 117 120 125 128 130 128
177 172 164 156 154 153 152 151 156 157 154 146 152 161 173 185 197 214 243 285 323 37 68 87 88 83 75 63 56 49 43 37 34 33 37 45 53 55 52 47 45 51 61 67 72 73 72 72 73 73 73 73 74 76 79 83 84 85 87 89 95 103 112 120 126 131 135 138 138
175 169 161 154 153 151 149 150 152 152 153 158 167 173 176 179 180 188 291 344 19 65 83 85 80 76 72 68 63 55 45 37 33 32 33 39 50 54 51 45 45 58 67 70 71 71 71 71 72 73 73 73 75 76 79 81 81 80 78 75 77 82 91 103 114 124 131 134 133
173 165 158 153 151 149 149 151 151 153 159 170 178 177 173 162 156 153 140 95 84 83 81 78 74 72 70 71 74 69 57 43 39 40 45 52 59 60 57 47 49 67 73 75 74 74 74 75 77 79 79 75 76 78 80 80 79 78 76 73 69 67 70 78 88 98 105 110 110
169 161 156 153 151 150 151 152 152 157 167 179 182 178 168 153 150 149 149 139 111 93 82 76 73 71 68 65 70 71 67 56 53 53 58 66 72 72 69 60 64 76 80 82 81 81 82 84 87 88 88 84 83 83 84 82 82 80 79 77 71 66 64 65 69 73 78 85 92
166 160 156 154 153 153 153 153 155 163 174 184 182 175 163 146 139 138 136 128 112 101 91 84 80 78 74 70 65 63 64 67 66 65 66 73 83 87 86 78 77 82 85 87 88 89 92 95 97 97 96 92 89 87 87 86 85 83 81 78 73 66 60 59 58 59 62 70 81
165 159 156 154 154 155 155 154 159 169 179 185 180 168 153 136 128 124 123 122 114 109 102 93 90 89 88 87 78 69 63 66 72 73 71 73 87 96 98 92 84 82 84 87 89 92 96 100 102 102 100 97 95 94 93 92 91 87 83 79 72 64 57 56 56 55 56 59 69
164 159 156 154 156 156 157 157 165 173 180 182 174 158 141 130 128 128 128 129 123 119 114 104 100 101 101 99 90 77 65 59 66 71 73 72 84 98 102 98 88 81 80 83 85 88 91 95 98 99 99 99 102 102 101 99 96 91 86 81 74 65 57 56 55 55 54 53 59
162 158 155 154 156 157 158 163 171 177 179 174 162 147 135 130 131 133 133 126 124 122 120 115 113 111 108 101 92 80 68 57 56 60 66 67 77 92 99 99 92 83 78 79 80 81 82 85 88 89 89 88 94 99 101 100 96 91 88 86 82 72 62 57 57 57 55 51 54
159 156 154 154 156 157 160 166 174 176 173 165 155 146 140 138 135 131 125 115 114 115 117 118 117 115 109 100 93 85 75 61 52 51 53 58 69 83 93 97 93 86 78 77 77 76 76 77 79 79 78 75 76 85 93 96 94 91 88 88 88 82 72 61 60 59 58 53 50
154 153 153 155 155 157 160 167 171 171 165 156 152 148 143 141 134 127 122 116 114 115 116 117 116 113 107 101 97 91 84 72 58 50 48 53 65 79 90 98 94 88 80 75 75 75 75 75 77 79 79 79 76 81 89 94 94 93 92 90 90 90 85 75 67 62 59 57 52